GW7358 Weather Reports


time (UTC)temp
C
wind
direction
speed
KPH
gust
KPH
rain 1hr
cm
rain 24hr
cm
rain mn
cm
humidity
%
barometer
mb
20260507181529 18 258 3.2 4.8 0.00 0.00 0.00 43 1019.6
20260507181025 18 180 0.0 4.8 0.00 0.00 0.00 43 1019.5
20260507180522 18 187 0.0 3.2 0.00 0.00 0.00 44 1019.9
20260507180019 18 127 0.0 3.2 0.00 0.00 0.00 45 1020.0
20260507175515 18 181 1.6 1.6 0.00 0.00 0.00 44 1020.0
20260507175013 18 190 3.2 3.2 0.00 0.00 0.00 44 1020.0
20260507174510 19 193 0.0 3.2 0.00 0.00 0.00 44 1019.7
20260507174007 19 189 3.2 3.2 0.00 0.00 0.00 45 1019.8
20260507173504 19 188 3.2 3.2 0.00 0.00 0.00 45 1019.5
20260507173001 19 194 1.6 3.2 0.00 0.00 0.00 46 1019.6
20260507172457 19 180 3.2 3.2 0.00 0.00 0.00 46 1019.6
20260507171954 19 191 3.2 3.2 0.00 0.00 0.00 47 1019.6
20260507171449 20 186 3.2 3.2 0.00 0.00 0.00 48 1019.6
20260507170947 20 144 0.0 4.8 0.00 0.00 0.00 47 1019.6
20260507170444 20 194 3.2 3.2 0.00 0.00 0.00 47 1019.6
20260507165940 20 176 1.6 3.2 0.00 0.00 0.00 45 1019.6
20260507165436 20 202 1.6 3.2 0.00 0.00 0.00 44 1019.4
20260507164932 20 197 0.0 3.2 0.00 0.00 0.00 45 1019.4
20260507164429 21 193 0.0 3.2 0.00 0.00 0.00 44 1019.4
20260507163926 21 224 0.0 3.2 0.00 0.00 0.00 43 1019.1
20260507163424 21 204 0.0 3.2 0.00 0.00 0.00 44 1019.2
20260507162920 21 190 1.6 3.2 0.00 0.00 0.00 43 1019.2
20260507162415 21 149 0.0 1.6 0.00 0.00 0.00 43 1019.3
20260507161913 21 198 1.6 1.6 0.00 0.00 0.00 41 1019.2
20260507161409 21 230 0.0 0.0 0.00 0.00 0.00 38 1019.3
20260507160906 21 198 3.2 4.8 0.00 0.00 0.00 41 1019.5
20260507160401 21 214 6.4 6.4 0.00 0.00 0.00 40 1019.3
20260507155858 21 214 3.2 4.8 0.00 0.00 0.00 38 1019.3
20260507155354 21 216 4.8 4.8 0.00 0.00 0.00 38 1019.3
20260507154851 21 218 4.8 4.8 0.00 0.00 0.00 40 1019.1
20260507154348 21 242 3.2 4.8 0.00 0.00 0.00 39 1019.2
20260507153845 21 241 3.2 4.8 0.00 0.00 0.00 44 1019.2
20260507153341 22 228 4.8 4.8 0.00 0.00 0.00 47 1019.2
20260507152838 22 233 4.8 6.4 0.00 0.00 0.00 48 1018.9
20260507152334 22 215 3.2 8.0 0.00 0.00 0.00 46 1019.0
20260507151831 22 221 6.4 9.7 0.00 0.00 0.00 50 1019.2
20260507151327 22 208 6.4 9.7 0.00 0.00 0.00 42 1019.1
20260507150824 23 215 3.2 4.8 0.00 0.00 0.00 34 1019.4
20260507150320 23 185 0.0 3.2 0.00 0.00 0.00 35 1019.3
20260507145817 23 197 0.0 3.2 0.00 0.00 0.00 35 1019.5
20260507145313 22 236 0.0 3.2 0.00 0.00 0.00 35 1019.7
20260507144811 22 193 3.2 3.2 0.00 0.00 0.00 36 1019.7
20260507144307 22 196 1.6 4.8 0.00 0.00 0.00 39 1019.9
20260507143804 22 89 1.6 1.6 0.00 0.00 0.00 41 1020.1
20260507143302 22 210 0.0 4.8 0.00 0.00 0.00 39 1020.3
20260507142757 21 292 0.0 1.6 0.00 0.00 0.00 36 1020.2
20260507142254 21 187 1.6 3.2 0.00 0.00 0.00 39 1020.4
20260507141750 21 193 3.2 4.8 0.00 0.00 0.00 44 1020.2
20260507141248 21 231 3.2 4.8 0.00 0.00 0.00 49 1020.1
20260507140743 21 246 3.2 4.8 0.00 0.00 0.00 48 1020.2
20260507140241 21 201 3.2 4.8 0.00 0.00 0.00 48 1020.2
20260507135738 21 248 3.2 6.4 0.00 0.00 0.00 48 1019.8
20260507135235 21 228 8.0 9.7 0.00 0.00 0.00 48 1019.8
20260507134731 22 214 4.8 8.0 0.00 0.00 0.00 47 1020.0
20260507134228 22 218 4.8 8.0 0.00 0.00 0.00 41 1019.7
20260507133724 22 230 8.0 8.0 0.00 0.00 0.00 43 1019.7
20260507133221 22 233 6.4 9.7 0.00 0.00 0.00 48 1019.7
20260507132718 22 213 9.7 9.7 0.00 0.00 0.00 55 1019.6
20260507132215 22 222 8.0 9.7 0.00 0.00 0.00 55 1019.6
20260507131712 22 224 6.4 9.7 0.00 0.00 0.00 54 1019.7
20260507131209 22 206 6.4 8.0 0.00 0.00 0.00 51 1019.7
20260507130706 22 216 9.7 9.7 0.00 0.00 0.00 47 1019.8
20260507130204 22 202 6.4 11.3 0.00 0.00 0.00 50 1019.9
20260507125702 22 212 6.4 9.7 0.00 0.00 0.00 56 1019.9
20260507125159 22 224 8.0 9.7 0.00 0.00 0.00 55 1020.1
20260507124655 23 205 6.4 12.9 0.00 0.00 0.00 54 1020.3
20260507124153 23 223 8.0 11.3 0.00 0.00 0.00 52 1020.1
20260507123651 23 221 6.4 12.9 0.00 0.00 0.00 51 1020.2
20260507123148 22 223 9.7 11.3 0.00 0.00 0.00 50 1020.3
20260507122643 22 187 9.7 9.7 0.00 0.00 0.00 50 1020.4
20260507122139 23 208 4.8 9.7 0.00 0.00 0.00 48 1020.7
20260507121635 23 229 8.0 12.9 0.00 0.00 0.00 49 1020.5
20260507121131 23 213 6.4 11.3 0.00 0.00 0.00 48 1020.7
20260507120628 23 203 6.4 11.3 0.00 0.00 0.00 47 1020.7
20260507120124 22 207 6.4 11.3 0.00 0.00 0.00 51 1020.7
20260507115621 22 217 9.7 11.3 0.00 0.00 0.00 50 1020.6
20260507115117 23 205 8.0 11.3 0.00 0.00 0.00 50 1020.4
20260507114613 23 227 8.0 14.5 0.00 0.00 0.00 54 1020.4
20260507114110 23 199 9.7 12.9 0.00 0.00 0.00 52 1020.4
20260507113607 23 214 8.0 11.3 0.00 0.00 0.00 53 1020.2
20260507113104 23 228 6.4 11.3 0.00 0.00 0.00 52 1020.0
20260507112602 23 229 6.4 9.7 0.00 0.00 0.00 54 1020.2
20260507112059 22 209 6.4 6.4 0.00 0.00 0.00 53 1020.4
20260507111555 22 229 6.4 9.7 0.00 0.00 0.00 55 1020.7
20260507111052 22 239 3.2 8.0 0.00 0.00 0.00 57 1020.8
20260507110548 22 226 6.4 8.0 0.00 0.00 0.00 60 1020.9
20260507110045 22 231 4.8 8.0 0.00 0.00 0.00 59 1020.8
20260507105542 22 242 4.8 8.0 0.00 0.00 0.00 57 1020.5
20260507105038 23 240 6.4 8.0 0.00 0.00 0.00 56 1020.4
20260507104535 22 250 3.2 8.0 0.00 0.00 0.00 60 1020.5
20260507104032 22 217 6.4 9.7 0.00 0.00 0.00 61 1020.3
20260507103528 22 236 6.4 6.4 0.00 0.00 0.00 61 1020.5
20260507103025 22 207 6.4 6.4 0.00 0.00 0.00 62 1020.6
20260507102522 22 230 6.4 8.0 0.00 0.00 0.00 62 1020.6
20260507102018 22 230 6.4 8.0 0.00 0.00 0.00 61 1020.5
20260507101513 22 248 6.4 8.0 0.00 0.00 0.00 62 1020.5
20260507101010 21 225 6.4 8.0 0.00 0.00 0.00 63 1020.6
20260507100507 21 233 6.4 8.0 0.00 0.00 0.00 65 1020.4
20260507100005 21 234 6.4 8.0 0.00 0.00 0.00 64 1020.4
20260507095503 21 207 6.4 9.7 0.00 0.00 0.00 66 1020.5
20260507094959 21 231 11.3 14.5 0.00 0.00 0.00 64 1020.3
20260507094455 22 218 8.0 12.9 0.00 0.00 0.00 63 1020.2
20260507093953 22 218 9.7 9.7 0.00 0.00 0.00 60 1020.2
20260507093450 22 214 6.4 9.7 0.00 0.00 0.00 63 1020.5
20260507092948 21 209 8.0 9.7 0.00 0.00 0.00 62 1020.5
20260507092444 21 206 8.0 8.0 0.00 0.00 0.00 62 1020.6
20260507091941 22 198 8.0 11.3 0.00 0.00 0.00 62 1020.6
20260507091438 22 203 8.0 11.3 0.00 0.00 0.00 65 1020.6
20260507090934 21 215 4.8 9.7 0.00 0.00 0.00 65 1020.2
20260507090430 21 227 6.4 9.7 0.00 0.00 0.00 65 1020.4
20260507085926 21 217 9.7 11.3 0.00 0.00 0.00 65 1020.3
20260507085424 21 215 9.7 9.7 0.00 0.00 0.00 65 1020.4
20260507084921 21 231 11.3 12.9 0.00 0.00 0.00 67 1020.3
20260507084417 21 223 8.0 11.3 0.00 0.00 0.00 67 1020.4
20260507083915 21 216 8.0 9.7 0.00 0.00 0.00 65 1020.1
20260507083411 21 244 6.4 6.4 0.00 0.00 0.00 68 1020.2
20260507082907 21 214 6.4 8.0 0.00 0.00 0.00 68 1020.2
20260507082403 21 218 8.0 9.7 0.00 0.00 0.00 66 1020.2
20260507081901 21 228 8.0 9.7 0.00 0.00 0.00 66 1020.3
20260507081356 21 206 4.8 8.0 0.00 0.00 0.00 67 1020.2
20260507080853 20 211 6.4 9.7 0.00 0.00 0.00 68 1020.0
20260507080349 21 221 6.4 11.3 0.00 0.00 0.00 67 1020.0
20260507075845 20 243 3.2 8.0 0.00 0.00 0.00 67 1019.8
20260507075341 20 219 6.4 9.7 0.00 0.00 0.00 64 1019.9
20260507074838 20 214 8.0 9.7 0.00 0.00 0.00 64 1019.9
20260507074335 20 214 6.4 9.7 0.00 0.00 0.00 64 1019.7
20260507073832 20 229 9.7 14.5 0.00 0.00 0.00 66 1019.8
20260507073329 20 233 6.4 9.7 0.00 0.00 0.00 66 1019.7
20260507072826 20 223 6.4 9.7 0.00 0.00 0.00 65 1019.9
20260507072323 20 234 3.2 6.4 0.00 0.00 0.00 64 1020.1
20260507071821 20 239 3.2 6.4 0.00 0.00 0.00 65 1020.0
20260507071318 20 195 6.4 9.7 0.00 0.00 0.00 64 1020.1
20260507070814 20 219 4.8 4.8 0.00 0.00 0.00 64 1019.9
20260507070312 20 242 4.8 6.4 0.00 0.00 0.00 64 1019.9
20260507065808 20 218 4.8 6.4 0.00 0.00 0.00 64 1019.8
20260507065306 20 218 6.4 8.0 0.00 0.00 0.00 65 1019.9
20260507064802 20 230 6.4 8.0 0.00 0.00 0.00 64 1019.7
20260507064301 20 248 4.8 6.4 0.00 0.00 0.00 63 1019.8
20260507063758 20 229 4.8 6.4 0.00 0.00 0.00 63 1019.8
20260507063255 19 227 4.8 6.4 0.00 0.00 0.00 64 1019.9
20260507062751 19 243 4.8 6.4 0.00 0.00 0.00 63 1019.6
20260507062249 20 221 4.8 6.4 0.00 0.00 0.00 63 1019.7
20260507061747 20 232 9.7 9.7 0.00 0.00 0.00 60 1019.7
20260507061244 19 220 6.4 8.0 0.00 0.00 0.00 60 1019.6
20260507060743 19 227 4.8 8.0 0.00 0.00 0.00 58 1019.4
20260507060239 19 208 4.8 6.4 0.00 0.00 0.00 57 1019.4
20260507055735 19 220 6.4 8.0 0.00 0.00 0.00 58 1019.4
20260507055230 19 195 4.8 6.4 0.00 0.00 0.00 57 1019.3
20260507054726 19 205 4.8 6.4 0.00 0.00 0.00 56 1019.2
20260507054224 18 201 3.2 4.8 0.00 0.00 0.00 53 1019.2
20260507053721 18 214 3.2 4.8 0.00 0.00 0.00 60 1019.4
20260507053219 18 109 0.0 3.2 0.00 0.00 0.00 58 1019.2
20260507052718 17 226 3.2 4.8 0.00 0.00 0.00 58 1019.2
20260507052213 17 197 3.2 4.8 0.00 0.00 0.00 54 1019.2
20260507051712 16 281 1.6 3.2 0.00 0.00 0.00 57 1019.3
20260507051208 16 203 0.0 3.2 0.00 0.00 0.00 60 1019.2
20260507050705 15 217 0.0 3.2 0.00 0.00 0.00 61 1019.3
20260507050202 15 207 0.0 3.2 0.00 0.00 0.00 61 1019.1
20260507045658 15 191 3.2 3.2 0.00 0.00 0.00 63 1019.2
20260507045156 15 191 0.0 3.2 0.00 0.00 0.00 62 1019.1
20260507044652 15 185 3.2 3.2 0.00 0.00 0.00 62 1019.2
20260507044148 15 198 0.0 3.2 0.00 0.00 0.00 62 1019.0
20260507043644 14 182 0.0 3.2 0.00 0.00 0.00 62 1018.8
20260507043142 14 208 0.0 3.2 0.00 0.00 0.00 61 1018.7
20260507042638 14 189 1.6 3.2 0.00 0.00 0.00 60 1018.3
20260507042134 14 117 0.0 3.2 0.00 0.00 0.00 60 1018.3
20260507041631 14 187 0.0 3.2 0.00 0.00 0.00 59 1018.4
20260507041127 14 185 3.2 3.2 0.00 0.00 0.00 58 1018.3
20260507040624 14 190 1.6 3.2 0.00 0.00 0.00 58 1018.2
20260507040120 13 185 0.0 3.2 0.00 0.00 0.00 60 1018.0
20260507035616 13 202 3.2 3.2 0.00 0.00 0.00 59 1018.1
20260507035113 13 186 1.6 3.2 0.00 0.00 0.00 59 1018.1
20260507034610 13 193 3.2 3.2 0.00 0.00 0.00 59 1018.0
20260507034107 13 186 1.6 3.2 0.00 0.00 0.00 60 1017.8
20260507033605 13 192 0.0 3.2 0.00 0.00 0.00 62 1017.7
20260507033102 13 210 0.0 3.2 0.00 0.00 0.00 62 1017.8
20260507032600 13 201 3.2 3.2 0.00 0.00 0.00 62 1017.7
20260507032055 13 147 0.0 3.2 0.00 0.00 0.00 60 1017.5
20260507031552 14 179 0.0 3.2 0.00 0.00 0.00 60 1017.5
20260507031049 13 185 1.6 3.2 0.00 0.00 0.00 59 1017.5
20260507030545 14 345 0.0 1.6 0.00 0.00 0.00 59 1017.5
20260507030044 13 208 4.8 4.8 0.00 0.00 0.00 58 1017.5
20260507025540 13 184 3.2 4.8 0.00 0.00 0.00 62 1017.5
20260507025037 13 208 0.0 1.6 0.00 0.00 0.00 68 1017.6
20260507024536 13 168 0.0 3.2 0.00 0.00 0.00 69 1017.9
20260507024032 13 152 0.0 3.2 0.00 0.00 0.00 70 1017.9
20260507023528 13 188 1.6 3.2 0.00 0.00 0.00 71 1018.0
20260507023026 13 37 0.0 4.8 0.00 0.00 0.00 72 1018.1
20260507022522 13 173 1.6 3.2 0.00 0.00 0.00 71 1018.2
20260507022018 13 85 0.0 3.2 0.00 0.00 0.00 71 1018.1
20260507021514 13 181 1.6 3.2 0.00 0.00 0.00 69 1018.3
20260507021011 13 232 0.0 3.2 0.00 0.00 0.00 68 1017.9
20260507020508 13 220 0.0 3.2 0.00 0.00 0.00 67 1017.7
20260507020004 13 104 0.0 3.2 0.00 0.00 0.00 66 1017.6
20260507015503 13 161 0.0 3.2 0.00 0.00 0.00 66 1017.6
20260507015000 13 155 0.0 3.2 0.00 0.00 0.00 68 1017.7
20260507014456 13 191 0.0 3.2 0.00 0.00 0.00 68 1017.8
20260507013952 13 151 0.0 3.2 0.00 0.00 0.00 68 1017.8
20260507013449 13 168 0.0 3.2 0.00 0.00 0.00 67 1017.8
20260507012947 14 182 3.2 4.8 0.00 0.00 0.00 65 1017.8
20260507012443 14 178 1.6 3.2 0.00 0.00 0.00 66 1017.7
20260507011940 14 179 1.6 4.8 0.00 0.00 0.00 67 1017.7
20260507011437 14 176 0.0 1.6 0.00 0.00 0.00 69 1017.7
20260507010937 13 175 0.0 3.2 0.00 0.00 0.00 70 1017.6
20260507010433 13 162 0.0 3.2 0.00 0.00 0.00 71 1017.6
20260507005930 13 174 0.0 3.2 0.00 0.00 0.00 70 1017.6
20260507005427 13 193 0.0 3.2 0.00 0.00 0.00 70 1017.9
20260507004923 13 191 1.6 4.8 0.00 0.00 0.00 69 1018.0
20260507004420 14 136 0.0 3.2 0.00 0.00 0.00 68 1018.0
20260507003918 14 172 0.0 1.6 0.00 0.00 0.00 67 1018.0
20260507003412 14 206 3.2 4.8 0.00 0.00 0.00 64 1017.9
20260507002908 15 206 3.2 3.2 0.00 0.00 0.00 64 1017.8
20260507002404 14 193 3.2 3.2 0.00 0.00 0.00 63 1017.6
20260507001902 15 202 3.2 3.2 0.00 0.00 0.00 65 1017.6
20260507001358 15 153 0.0 3.2 0.00 0.00 0.00 64 1017.8
20260507000856 15 116 0.0 3.2 0.00 0.00 0.00 61 1017.8
20260507000350 15 155 0.0 3.2 0.00 0.00 0.00 62 1017.7
20260506235847 15 194 0.0 4.8 0.00 0.00 0.00 63 1017.8
20260506235344 15 133 0.0 3.2 0.00 0.00 0.00 66 1018.1
20260506234840 15 186 3.2 4.8 0.00 0.00 0.00 67 1018.3
20260506234338 15 183 1.6 3.2 0.00 0.00 0.00 67 1018.6
20260506233836 14 180 1.6 3.2 0.00 0.00 0.00 67 1018.9
20260506233331 14 217 0.0 3.2 0.00 0.00 0.00 67 1019.0
20260506232828 14 173 1.6 3.2 0.00 0.00 0.00 67 1018.9
20260506232324 14 174 1.6 3.2 0.00 0.00 0.00 67 1019.0
20260506231821 14 189 1.6 3.2 0.00 0.00 0.00 67 1018.9
20260506231319 15 182 0.0 3.2 0.00 0.00 0.00 67 1018.9
20260506230816 15 184 3.2 3.2 0.00 0.00 0.00 65 1019.0
20260506230312 15 209 0.0 4.8 0.00 0.00 0.00 65 1019.0
20260506225808 15 152 0.0 3.2 0.00 0.00 0.00 66 1018.8
20260506225306 15 189 3.2 3.2 0.00 0.00 0.00 64 1018.8
20260506224803 15 201 3.2 4.8 0.00 0.00 0.00 65 1018.9
20260506224300 15 10 0.0 4.8 0.00 0.00 0.00 66 1019.1
20260506223756 15 5 0.0 3.2 0.00 0.00 0.00 65 1018.9
20260506223251 15 86 1.6 4.8 0.00 0.00 0.00 67 1019.2
20260506222748 15 192 1.6 3.2 0.00 0.00 0.00 69 1019.2
20260506222244 15 277 0.0 3.2 0.00 0.00 0.00 71 1019.4
20260506221742 15 28 0.0 3.2 0.00 0.00 0.00 71 1019.3
20260506221240 15 31 0.0 3.2 0.00 0.00 0.00 71 1019.1
20260506220737 15 168 0.0 3.2 0.00 0.00 0.00 71 1019.2
20260506220232 15 175 0.0 3.2 0.00 0.00 0.00 71 1019.3
20260506215729 15 217 0.0 3.2 0.00 0.00 0.00 71 1019.1
20260506215224 15 66 0.0 4.8 0.00 0.00 0.00 70 1018.9
20260506214721 15 165 1.6 3.2 0.00 0.00 0.00 70 1019.0
20260506214218 15 180 1.6 3.2 0.00 0.00 0.00 70 1019.1
20260506213716 15 171 0.0 3.2 0.00 0.00 0.00 69 1019.0
20260506213213 15 206 0.0 3.2 0.00 0.00 0.00 68 1018.9
20260506212711 15 152 3.2 4.8 0.00 0.00 0.00 68 1018.9
20260506212206 15 147 3.2 3.2 0.00 0.00 0.00 71 1018.7
20260506211702 15 238 0.0 3.2 0.00 0.00 0.00 71 1018.7
20260506211158 15 158 0.0 3.2 0.00 0.00 0.00 70 1019.0
20260506210655 15 193 0.0 3.2 0.00 0.00 0.00 69 1019.0
20260506210152 15 182 1.6 3.2 0.00 0.00 0.00 69 1018.8
20260506205650 15 163 0.0 3.2 0.00 0.00 0.00 68 1018.6
20260506205149 15 140 0.0 3.2 0.00 0.00 0.00 67 1018.5
20260506204648 16 48 0.0 0.0 0.00 0.00 0.00 65 1018.2
20260506204144 16 95 1.6 3.2 0.00 0.00 0.00 65 1018.3
20260506203643 16 22 0.0 1.6 0.00 0.00 0.00 65 1018.3
20260506203139 16 176 0.0 3.2 0.00 0.00 0.00 65 1018.4
20260506202637 16 218 0.0 3.2 0.00 0.00 0.00 66 1018.3
20260506202133 16 197 0.0 3.2 0.00 0.00 0.00 66 1018.3
20260506201630 16 177 1.6 3.2 0.00 0.00 0.00 66 1018.5
20260506201127 16 208 3.2 3.2 0.00 0.00 0.00 66 1018.5
20260506200623 16 181 1.6 3.2 0.00 0.00 0.00 66 1018.7
20260506200120 16 177 1.6 3.2 0.00 0.00 0.00 67 1018.8
20260506195617 16 87 1.6 3.2 0.00 0.00 0.00 67 1018.8
20260506195113 16 194 3.2 3.2 0.00 0.00 0.00 68 1018.8
20260506194611 16 100 0.0 4.8 0.00 0.00 0.00 68 1018.9
20260506194107 16 155 3.2 4.8 0.00 0.00 0.00 68 1018.9
20260506193605 16 85 0.0 3.2 0.00 0.00 0.00 67 1019.0
20260506193102 16 31 0.0 3.2 0.00 0.00 0.00 67 1018.9
20260506192559 16 181 0.0 0.0 0.00 0.00 0.00 67 1019.1
20260506192054 16 161 0.0 3.2 0.00 0.00 0.00 67 1018.8
20260506191551 16 197 1.6 3.2 0.00 0.00 0.00 69 1018.9
20260506191047 16 226 0.0 1.6 0.00 0.00 0.00 69 1018.8
20260506190545 16 210 0.0 1.6 0.00 0.00 0.00 69 1018.7
20260506190042 16 209 1.6 3.2 0.00 0.00 0.00 69 1018.9
20260506185539 17 54 0.0 3.2 0.00 0.00 0.00 70 1018.7
20260506185035 17 184 1.6 3.2 0.00 0.00 0.00 70 1018.7
20260506184532 17 191 1.6 3.2 0.00 0.00 0.00 71 1018.6
20260506184030 17 220 0.0 3.2 0.00 0.00 0.00 71 1018.7
20260506183525 17 191 3.2 3.2 0.00 0.00 0.00 71 1018.6
20260506183023 17 187 0.0 3.2 0.00 0.00 0.00 71 1018.6
20260506182520 17 161 1.6 3.2 0.00 0.00 0.00 71 1018.6
20260506182017 17 185 0.0 3.2 0.00 0.00 0.00 71 1018.5